Date String (YYYY-MM-DD hh:mm:ss) UTC,Instrument flags,Ambient pressure (hPa),Sample flow (lpm),Bypass flow (lpm),Sample temperature (°C),Ambient temperature (°C),ASC tube jacket temperature (°C),LED temperature (°C),Box temperature (°C),Sample RH (%),Span deviation,Mass concentration (μg/m³),Mass concentration (μg/m³),Mass concentration (μg/m³)
DateTimeUTC,F1_M11,P_M11,Q1_M11,Q2_M11,T1_M11,T2_M11,T3_M11,T4_M11,T5_M11,U1_M11,ZSPAN_M11,X0_M11,X2_M11,X1_M11
2022-11-03 21:00:00,,0819.3,5.00,0.00,24.7,23.3,00.0,33.6,26.7,11.7,0000.0,0012.76,0004.24,0003.56
2022-11-03 21:01:00,,0819.3,4.98,0.00,24.7,23.3,00.0,33.5,26.7,11.8,0000.0,0012.16,0004.23,0003.56
2022-11-03 21:02:00,,0819.3,5.00,0.00,24.7,23.3,00.0,33.5,26.7,11.8,0000.0,0012.31,0004.26,0003.56
2022-11-03 21:03:00,,0819.3,5.00,0.00,24.8,23.4,00.0,33.5,26.7,11.8,0000.0,0012.64,0004.28,0003.56
2022-11-03 21:04:00,,0819.3,5.01,0.00,24.8,23.4,00.0,33.5,26.7,11.7,0000.0,0012.56,0004.30,0003.55
2022-11-03 21:05:00,,0819.4,5.00,0.00,24.8,23.4,00.0,33.5,26.7,11.7,0000.0,0013.05,0004.29,0003.56
2022-11-03 21:06:00,,0819.4,5.00,0.00,24.8,23.4,00.0,33.5,26.7,11.7,0000.0,0013.54,0004.33,0003.57
2022-11-03 21:07:00,,0819.4,5.01,0.00,24.8,23.4,00.0,33.6,26.7,11.7,0000.0,0014.19,0004.36,0003.58
2022-11-03 21:08:00,,0819.4,5.00,0.00,24.8,23.4,00.0,33.6,26.7,11.7,0000.0,0014.53,0004.37,0003.58
2022-11-03 21:09:00,,0819.4,5.00,0.00,24.8,23.3,00.0,33.5,26.7,11.6,0000.0,0014.82,0004.40,0003.59
2022-11-03 21:10:00,,0819.4,5.00,0.00,24.8,23.3,00.0,33.5,26.7,11.7,0000.0,0014.78,0004.35,0003.59
2022-11-03 21:11:00,,0819.4,5.00,0.00,24.8,23.3,00.0,33.5,26.7,11.7,0000.0,0014.08,0004.34,0003.60
2022-11-03 21:12:00,,0819.4,5.00,0.00,24.8,23.3,00.0,33.5,26.7,11.7,0000.0,0014.31,0004.39,0003.61
2022-11-03 21:13:00,,0819.4,4.99,0.00,24.8,23.3,00.0,33.5,26.7,11.8,0000.0,0014.00,0004.39,0003.63
2022-11-03 21:14:00,,0819.4,5.01,0.00,24.8,23.3,00.0,33.5,26.7,11.8,0000.0,0013.18,0004.38,0003.64
2022-11-03 21:15:00,,0819.4,4.99,0.00,24.7,23.2,00.0,33.5,26.7,11.7,0000.0,0013.61,0004.38,0003.65
2022-11-03 21:16:00,,0819.4,5.00,0.00,24.7,23.2,00.0,33.5,26.7,11.7,0000.0,0014.10,0004.40,0003.65
2022-11-03 21:17:00,,0819.5,5.00,0.00,24.7,23.3,00.0,33.5,26.7,11.7,0000.0,0013.64,0004.43,0003.67
2022-11-03 21:18:00,,0819.5,5.01,0.00,24.7,23.3,00.0,33.5,26.7,11.7,0000.0,0013.81,0004.46,0003.67
2022-11-03 21:19:00,,0819.5,5.00,0.00,24.7,23.3,00.0,33.5,26.6,11.7,0000.0,0013.82,0004.47,0003.67
2022-11-03 21:20:00,,0819.5,5.00,0.00,24.7,23.2,00.0,33.5,26.7,11.7,0000.0,0013.22,0004.43,0003.65
2022-11-03 21:21:00,,0819.5,5.00,0.00,24.7,23.3,00.0,33.5,26.7,11.7,0000.0,0013.81,0004.44,0003.64
2022-11-03 21:22:00,,0819.5,4.98,0.00,24.7,23.3,00.0,33.5,26.7,11.7,0000.0,0014.10,0004.45,0003.64
2022-11-03 21:23:00,,0819.5,5.02,0.00,24.7,23.3,00.0,33.5,26.7,11.7,0000.0,0013.98,0004.41,0003.63
2022-11-03 21:24:00,,0819.5,4.99,0.00,24.7,23.3,00.0,33.5,26.7,11.7,0000.0,0014.62,0004.36,0003.62
2022-11-03 21:25:00,,0819.5,5.00,0.00,24.7,23.3,00.0,33.5,26.6,11.7,0000.0,0015.08,0004.36,0003.61
2022-11-03 21:26:00,,0819.6,5.01,0.00,24.7,23.3,00.0,33.5,26.6,11.7,0000.0,0015.13,0004.37,0003.61
2022-11-03 21:27:00,,0819.6,4.98,0.00,24.7,23.3,00.0,33.5,26.6,11.7,0000.0,0014.94,0004.42,0003.60
2022-11-03 21:28:00,,0819.7,5.00,0.00,24.7,23.3,00.0,33.5,26.6,11.6,0000.0,0014.44,0004.36,0003.58
2022-11-03 21:29:00,,0819.7,5.00,0.00,24.7,23.3,00.0,33.5,26.6,11.6,0000.0,0013.77,0004.30,0003.56
2022-11-03 21:30:00,,0819.7,5.01,0.00,24.7,23.3,00.0,33.5,26.6,11.6,0000.0,0013.00,0004.26,0003.56
2022-11-03 21:31:00,,0819.8,5.00,0.00,24.7,23.3,00.0,33.5,26.6,11.7,0000.0,0012.91,0004.27,0003.55
2022-11-03 21:32:00,,0819.8,4.99,0.00,24.7,23.3,00.0,33.5,26.6,11.7,0000.0,0012.49,0004.26,0003.56
2022-11-03 21:33:00,,0819.7,5.00,0.00,24.7,23.3,00.0,33.5,26.7,11.7,0000.0,0012.53,0004.28,0003.56
2022-11-03 21:34:00,,0819.7,5.00,0.00,24.7,23.3,00.0,33.5,26.7,11.7,0000.0,0012.75,0004.33,0003.57
2022-11-03 21:35:00,,0819.7,5.01,0.00,24.7,23.4,00.0,33.5,26.7,11.7,0000.0,0012.58,0004.39,0003.58
2022-11-03 21:36:00,,0819.7,5.00,0.00,24.7,23.4,00.0,33.5,26.7,11.7,0000.0,0012.08,0004.43,0003.59
2022-11-03 21:37:00,,0819.7,4.99,0.00,24.7,23.4,00.0,33.5,26.7,11.8,0000.0,0011.49,0004.42,0003.60
2022-11-03 21:38:00,,0819.7,5.01,0.00,24.7,23.3,00.0,33.5,26.7,12.0,0000.0,0010.70,0004.41,0003.63
2022-11-03 21:39:00,,0819.7,5.00,0.00,24.7,23.2,00.0,33.5,26.6,12.1,0000.0,0010.67,0004.45,0003.64
2022-11-03 21:40:00,,0819.8,5.00,0.00,24.7,23.1,00.0,33.5,26.6,12.3,0000.0,0010.51,0004.49,0003.67
2022-11-03 21:41:00,,0819.8,4.98,0.00,24.7,23.1,00.0,33.5,26.6,12.6,0000.0,0011.88,0004.55,0003.69
2022-11-03 21:42:00,,0819.9,5.01,0.00,24.7,23.0,00.0,33.5,26.6,12.6,0000.0,0012.26,0004.60,0003.72
2022-11-03 21:43:00,,0819.8,5.00,0.00,24.7,23.0,00.0,33.5,26.6,12.7,0000.0,0012.39,0004.65,0003.75
2022-11-03 21:44:00,,0819.8,5.01,0.00,24.7,23.1,00.0,33.5,26.6,12.7,0000.0,0012.91,0004.71,0003.77
2022-11-03 21:45:00,,0819.9,4.98,0.00,24.7,23.1,00.0,33.5,26.6,12.7,0000.0,0012.55,0004.70,0003.78
2022-11-03 21:46:00,,0819.8,5.01,0.00,24.7,23.1,00.0,33.5,26.6,12.6,0000.0,0012.71,0004.68,0003.79
2022-11-03 21:47:00,,0819.9,5.00,0.00,24.7,23.1,00.0,33.5,26.6,12.7,0000.0,0012.74,0004.67,0003.81
2022-11-03 21:48:00,,0819.8,5.01,0.00,24.7,23.2,00.0,33.5,26.6,12.8,0000.0,0013.48,0004.70,0003.82
2022-11-03 21:49:00,,0819.9,5.01,0.00,24.6,23.2,00.0,33.5,26.6,12.8,0000.0,0014.32,0004.69,0003.84
2022-11-03 21:50:00,,0819.8,5.01,0.00,24.7,23.2,00.0,33.5,26.6,12.9,0000.0,0014.39,0004.69,0003.86
2022-11-03 21:51:00,,0819.9,4.98,0.00,24.7,23.2,00.0,33.5,26.6,13.0,0000.0,0014.26,0004.72,0003.86
2022-11-03 21:52:00,,0820.0,5.01,0.00,24.7,23.3,00.0,33.5,26.6,13.3,0000.0,0014.86,0004.72,0003.86
2022-11-03 21:53:00,,0819.9,5.01,0.00,24.7,23.3,00.0,33.4,26.6,13.4,0000.0,0015.26,0004.71,0003.87
2022-11-03 21:54:00,,0819.9,5.00,0.00,24.7,23.3,00.0,33.4,26.6,13.5,0000.0,0015.76,0004.72,0003.87
2022-11-03 21:55:00,,0819.9,5.00,0.00,24.7,23.3,00.0,33.5,26.6,13.8,0000.0,0015.21,0004.70,0003.87
2022-11-03 21:56:00,,0820.0,5.00,0.00,24.7,23.3,00.0,33.5,26.6,13.7,0000.0,0015.45,0004.70,0003.88
2022-11-03 21:57:00,,0820.1,5.00,0.00,24.7,23.3,00.0,33.5,26.6,13.7,0000.0,0015.24,0004.74,0003.88
2022-11-03 21:58:00,,0820.2,4.99,0.00,24.7,23.3,00.0,33.5,26.6,13.7,0000.0,0015.27,0004.73,0003.88
2022-11-03 21:59:00,,0820.3,5.00,0.00,24.7,23.1,00.0,33.5,26.6,13.7,0000.0,0014.94,0004.69,0003.87
